Snow/Ice From: 23-10-2018 22:46 Until: 24-10-2018 08:00 warning for: Snow/Ice Level: Yellow info button
suomi:
Liikennesää: Ajokeli on huono tienpintojen jäätymisen vuoksi.

svenska:
Trafikvädret: Väglaget är dåligt p.g.a. tillfrysning av vägytor.

english:
Traffic weather warning: Bad road conditions are expected because of ice-covered roads. 


Thunder radar more information blitzortung!


Löydät sääaseman tiedot myös:

European Weather Network

Finland Weather Exchange

Weather Underground

AWEKAS



Weather Underground säähistoriasivu

Päivittäin yhteenveto Tammikuu 10, 2017 Yksiköt:  Englantilaiset    Metriset   Molemmat
« Edellinen Päivä
Seuraava Päivä »
Päivittäin Viikoittain Kuukausittain Vuosittain Mukautettu
  Korkea: Matala: Keskiarvo:
Lämpötila: TemperatureF °F 33.4 °F 35.1 °F
Kastepiste: DewpointF °F 31.6 °F 33.4 °F
Kosteus: Humidity % 88 % 92 %
Tuulen nopeus: WindSpeedMPH mph 0.0 mph 0 mph
Tuulenpuuska: WindSpeedGustMPH mph - -
Tuuli:- - North
Ilmanpaine: PressureIn in 29.58 in -
Sade: 0.00 in    
Historical Graphs
 
 
Taulukkotiedot Tammikuu 10, 2017
Aika Lämpötila Kastepiste Ilmanpaine Tuuli Tuulen nopeus Tuulenpuuska Kosteus Sademäärä (tunneittain)
TemperatureF °F DewpointF °F PressureIn in Calm     Humidity % HourlyPrecipIn in
00:00 33.4 °F 32.7 °F 29.66 in Calm     97 % 0.00 in
00:15 33.4 °F 32.7 °F 29.66 in Calm     97 % 0.00 in
00:30 33.4 °F 32.7 °F 29.66 in Calm     97 % 0.00 in
00:45 33.6 °F 32.5 °F 29.65 in Calm     96 % 0.00 in
01:00 33.6 °F 32.5 °F 29.64 in Calm     96 % 0.00 in
01:15 33.6 °F 32.7 °F 29.64 in Calm     96 % 0.00 in
01:30 33.8 °F 32.7 °F 29.64 in Calm     96 % 0.00 in
01:45 34.0 °F 32.9 °F 29.64 in Calm     96 % 0.00 in
02:00 34.0 °F 32.9 °F 29.62 in Calm     96 % 0.00 in
02:15 34.2 °F 33.1 °F 29.62 in Calm     96 % 0.00 in
02:30 34.3 °F 33.6 °F 29.62 in Calm     97 % 0.00 in
02:45 34.5 °F 33.8 °F 29.62 in Calm     97 % 0.00 in
03:00 34.9 °F 34.0 °F 29.62 in Calm     97 % 0.00 in
03:15 35.1 °F 34.2 °F 29.62 in Calm     97 % 0.00 in
03:30 35.2 °F 34.5 °F 29.62 in Calm     97 % 0.00 in
03:45 35.8 °F 34.9 °F 29.62 in Calm     97 % 0.00 in
04:00 36.0 °F 35.2 °F 29.62 in Calm     97 % 0.00 in
04:15 36.1 °F 35.4 °F 29.61 in Calm     97 % 0.00 in
04:30 36.3 °F 35.6 °F 29.61 in Calm     97 % 0.00 in
04:45 36.3 °F 35.6 °F 29.61 in Calm     97 % 0.00 in
05:00 36.7 °F 36.0 °F 29.61 in Calm     97 % 0.00 in
05:15 36.9 °F 36.1 °F 29.61 in Calm     97 % 0.00 in
05:30 37.0 °F 36.3 °F 29.61 in Calm     97 % 0.00 in
05:45 37.2 °F 36.5 °F 29.61 in Calm     97 % 0.00 in
06:00 37.2 °F 36.5 °F 29.60 in Calm     97 % 0.00 in
06:15 37.6 °F 36.5 °F 29.60 in Calm     96 % 0.00 in
06:30 37.8 °F 36.7 °F 29.61 in Calm     96 % 0.00 in
06:45 37.8 °F 36.3 °F 29.61 in Calm     95 % 0.00 in
07:00 37.4 °F 36.3 °F 29.62 in Calm     96 % 0.00 in
07:15 37.2 °F 36.1 °F 29.62 in Calm     96 % 0.00 in
07:30 37.0 °F 36.0 °F 29.63 in Calm     96 % 0.00 in
07:45 36.9 °F 35.8 °F 29.63 in Calm     96 % 0.00 in
08:00 36.9 °F 35.8 °F 29.64 in Calm     96 % 0.00 in
08:15 36.9 °F 35.8 °F 29.64 in Calm     96 % 0.00 in
08:30 37.0 °F 36.0 °F 29.64 in Calm     96 % 0.00 in
08:45 37.0 °F 36.1 °F 29.64 in Calm     96 % 0.00 in
09:00 37.2 °F 36.1 °F 29.64 in Calm     96 % 0.00 in
09:15 37.2 °F 36.3 °F 29.65 in Calm     96 % 0.00 in
09:30 37.4 °F 36.1 °F 29.64 in Calm     95 % 0.00 in
09:45 37.6 °F 36.0 °F 29.65 in Calm     94 % 0.00 in
10:00 37.6 °F 35.8 °F 29.65 in Calm     93 % 0.00 in
10:15 37.4 °F 35.6 °F 29.65 in Calm     93 % 0.00 in
10:30 37.6 °F 35.4 °F 29.65 in Calm     92 % 0.00 in
10:45 37.6 °F 35.4 °F 29.65 in Calm     92 % 0.00 in
11:00 37.4 °F 35.2 °F 29.65 in Calm     92 % 0.00 in
11:15 37.2 °F 35.1 °F 29.65 in Calm     92 % 0.00 in
11:30 37.0 °F 34.9 °F 29.65 in Calm     92 % 0.00 in
11:45 36.9 °F 34.5 °F 29.66 in Calm     91 % 0.00 in
12:00 36.7 °F 34.2 °F 29.66 in Calm     91 % 0.00 in
12:15 36.3 °F 34.0 °F 29.66 in Calm     91 % 0.00 in
12:30 36.1 °F 33.6 °F 29.66 in Calm     90 % 0.00 in
12:45 36.1 °F 33.3 °F 29.66 in Calm     89 % 0.00 in
13:00 36.0 °F 33.1 °F 29.66 in Calm     89 % 0.00 in
13:15 36.0 °F 33.1 °F 29.65 in Calm     89 % 0.00 in
13:30 36.0 °F 32.9 °F 29.66 in Calm     89 % 0.00 in
13:45 36.0 °F 32.7 °F 29.66 in Calm     88 % 0.00 in
14:00 36.0 °F 32.7 °F 29.65 in Calm     88 % 0.00 in
14:15 35.8 °F 33.1 °F 29.66 in Calm     90 % 0.00 in
14:30 35.8 °F 32.9 °F 29.65 in Calm     89 % 0.00 in
14:45 35.8 °F 32.9 °F 29.66 in Calm     89 % 0.00 in
15:00 35.2 °F 32.9 °F 29.66 in Calm     91 % 0.00 in
15:15 35.2 °F 32.9 °F 29.65 in Calm     91 % 0.00 in
15:30 35.4 °F 32.7 °F 29.65 in Calm     90 % 0.00 in
15:45 35.2 °F 32.7 °F 29.65 in Calm     90 % 0.00 in
16:00 35.2 °F 32.7 °F 29.65 in Calm     90 % 0.00 in
16:15 35.2 °F 32.7 °F 29.65 in Calm     90 % 0.00 in
16:30 35.2 °F 32.5 °F 29.65 in Calm     90 % 0.00 in
16:45 35.1 °F 32.5 °F 29.65 in Calm     90 % 0.00 in
17:00 35.1 °F 32.7 °F 29.65 in Calm     91 % 0.00 in
17:15 35.1 °F 32.7 °F 29.64 in Calm     91 % 0.00 in
17:30 35.1 °F 32.4 °F 29.64 in Calm     90 % 0.00 in
17:45 35.1 °F 32.4 °F 29.64 in Calm     90 % 0.00 in
18:00 35.1 °F 32.4 °F 29.64 in Calm     90 % 0.00 in
18:15 35.1 °F 32.0 °F 29.64 in Calm     89 % 0.00 in
18:30 34.9 °F 32.0 °F 29.64 in Calm     89 % 0.00 in
18:45 34.9 °F 31.6 °F 29.64 in Calm     88 % 0.00 in
19:00 34.9 °F 31.8 °F 29.64 in Calm     89 % 0.00 in
19:15 34.7 °F 31.8 °F 29.64 in Calm     89 % 0.00 in
19:30 34.3 °F 31.8 °F 29.63 in Calm     90 % 0.00 in
19:45 34.3 °F 31.8 °F 29.63 in Calm     90 % 0.00 in
20:00 34.3 °F 31.6 °F 29.63 in Calm     90 % 0.00 in
20:15 34.3 °F 31.6 °F 29.63 in Calm     90 % 0.00 in
20:30 34.3 °F 31.6 °F 29.63 in Calm     90 % 0.00 in
20:45 34.3 °F 32.0 °F 29.63 in Calm     91 % 0.00 in
21:00 34.3 °F 32.0 °F 29.62 in Calm     91 % 0.00 in
21:15 34.3 °F 32.0 °F 29.62 in Calm     91 % 0.00 in
21:30 34.2 °F 32.2 °F 29.62 in Calm     92 % 0.00 in
21:45 34.0 °F 32.2 °F 29.61 in Calm     93 % 0.00 in
22:00 33.6 °F 32.0 °F 29.61 in Calm     94 % 0.00 in
22:15 33.4 °F 32.0 °F 29.61 in Calm     94 % 0.00 in
22:30 33.4 °F 32.0 °F 29.60 in Calm     94 % 0.00 in
22:45 33.4 °F 32.2 °F 29.60 in Calm     95 % 0.00 in
23:00 33.6 °F 32.4 °F 29.60 in Calm     95 % 0.00 in
23:15 33.6 °F 32.4 °F 29.60 in Calm     95 % 0.00 in
23:30 33.6 °F 32.2 °F 29.58 in Calm     94 % 0.00 in
23:45 33.6 °F 32.2 °F 29.58 in Calm     94 % 0.00 in
Esan sääasema
Terveisin Weather Underground - 2.75 mb

Alkuperäinen skripti  Jim McMurry - jmcmurry@mwt.net Sovitettu myös templatelle  Wim van der Kuil - Leuven-Template.eu

Laitteet joita käytämme:

Sääasema
Davis VP2

Sääasemaohjelma
Cumulus

Sääaseman tietokone
Asus EeePC

Palveluntarjoaja
Suncomet

Davis VP2

Cumulus

Asus EeePC

Suncomet